EW1647 Weather Reports


Display with metric or nautical units.
time (UTC)temp
F
wind
direction
speed
MPH
gust
MPH
rain 1hr
in
rain 24hr
in
rain mn
in
humidity
%
barometer
mb
20260505080029 54 189 3.0 6.0 0.00 0.00 0.00 88 1013.6
20260505074514 54 198 3.0 9.0 0.00 0.00 0.00 89 1013.5
20260505073015 54 236 2.0 9.0 0.00 0.00 0.00 88 1013.3
20260505071508 54 221 3.0 10.0 0.00 0.00 0.00 88 1013.1
20260505070005 55 231 4.0 8.0 0.00 0.00 0.00 87 1013.0
20260505064504 55 246 4.0 8.0 0.00 0.00 0.00 87 1012.9
20260505063002 55 200 3.0 5.0 0.00 0.00 0.00 86 1012.8
20260505061600 55 188 2.0 6.0 0.00 0.00 0.00 86 1012.6
20260505054602 56 240 0.0 5.0 0.00 0.00 0.00 84 1012.3
20260505053109 57 254 0.0 4.0 0.00 0.00 0.00 83 1012.3
20260505051553 57 254 3.0 7.0 0.00 0.00 0.00 82 1012.2
20260505041610 60 205 6.0 10.0 0.00 0.00 0.00 76 1011.4
20260505040050 61 246 5.0 15.0 0.00 0.00 0.00 74 1011.1
20260505034550 63 259 7.0 14.0 0.00 0.00 0.00 72 1010.9
20260505033050 64 275 1.0 7.0 0.00 0.00 0.00 70 1010.7
20260505031555 65 254 3.0 11.0 0.00 0.00 0.00 68 1010.5
20260505030049 66 263 8.0 14.0 0.00 0.00 0.00 66 1010.4
20260505024549 67 250 5.0 14.0 0.00 0.00 0.00 64 1010.2
20260505023048 69 298 3.0 8.0 0.00 0.00 0.00 63 1010.1
20260505021548 70 285 4.0 11.0 0.00 0.00 0.00 61 1010.1
20260505020045 71 257 5.0 11.0 0.00 0.00 0.00 59 1009.9
20260505014546 72 296 8.0 13.0 0.00 0.00 0.00 56 1010.0
20260505013045 73 227 7.0 16.0 0.00 0.00 0.00 54 1009.9
20260505011544 76 259 6.0 12.0 0.00 0.00 0.00 52 1009.9
20260505010045 77 286 7.0 11.0 0.00 0.00 0.00 51 1010.0
20260505004544 77 219 4.0 9.0 0.00 0.00 0.00 52 1010.0
20260505003042 77 260 5.0 10.0 0.00 0.00 0.00 51 1010.0
20260505001549 77 258 3.0 9.0 0.00 0.00 0.00 52 1010.0
20260505000047 77 318 4.0 9.0 0.00 0.00 0.00 54 1009.9
20260504234543 77 310 5.0 11.0 0.00 0.00 0.00 52 1010.0
20260504233039 77 285 7.0 12.0 0.00 0.00 0.00 52 1009.9
20260504231553 77 284 6.0 11.0 0.00 0.00 0.00 55 1010.1
20260504230035 77 298 5.0 12.0 0.00 0.00 0.00 52 1010.3
20260504224537 77 259 5.0 12.0 0.00 0.00 0.00 52 1010.5
20260504223132 76 274 5.0 11.0 0.00 0.00 0.00 53 1010.5
20260504221531 76 258 7.0 12.0 0.00 0.00 0.00 54 1010.7
20260504220033 76 294 6.0 11.0 0.00 0.00 0.00 55 1010.8
20260504214526 75 273 6.0 11.0 0.00 0.00 0.00 55 1010.9
20260504213022 74 262 6.0 12.0 0.00 0.00 0.00 58 1011.0
20260504211519 73 267 5.0 11.0 0.00 0.00 0.00 59 1011.1
20260504210017 73 267 5.0 12.0 0.00 0.00 0.00 59 1011.1
20260504204516 72 267 6.0 11.0 0.00 0.00 0.00 61 1011.2
20260504203021 72 275 7.0 11.0 0.00 0.00 0.00 60 1011.3
20260504201508 70 267 6.0 11.0 0.00 0.00 0.00 62 1011.1
20260504200008 70 288 5.0 12.0 0.00 0.00 0.00 63 1011.5
20260504194508 70 265 6.0 11.0 0.00 0.00 0.00 62 1011.4
20260504193014 69 243 6.0 12.0 0.00 0.00 0.00 62 1011.5
20260504191503 69 305 4.0 11.0 0.00 0.00 0.00 63 1011.7
20260504190002 69 291 4.0 9.0 0.00 0.00 0.00 64 1011.7
20260504184601 68 298 4.0 8.0 0.00 0.00 0.00 67 1011.8
20260504183056 68 297 4.0 8.0 0.00 0.00 0.00 68 1011.9
20260504181558 67 310 3.0 8.0 0.00 0.00 0.00 68 1012.1
20260504180143 67 265 4.0 9.0 0.00 0.00 0.00 69 1011.9
20260504174550 66 277 4.0 8.0 0.00 0.00 0.00 69 1011.9
20260504173059 65 248 4.0 10.0 0.00 0.00 0.00 69 1011.9
20260504171544 65 286 3.0 8.0 0.00 0.00 0.00 69 1011.9
20260504081538 56 122 2.0 4.0 0.00 0.00 0.00 73 1009.7